Regional Weather Roundup
Issued by NWS Little Rock, AR

Home | Current Version | Previous Version | Graphics & Text | Print | Product List | Glossary On
Versions: 1 2 3 4 5 6 7 8 9 10 11 12 13 14 15 16 17 18 19 20 21 22 23 24 25 26 27 28 29 30 31 32 33 34 35 36 37 38 39 40 41 42 43 44 45 46 47 48 49 50
000
ASUS44 KLZK 270405
RWRLZK

WEATHER ROUNDUP FOR ARKANSAS
NATIONAL WEATHER SERVICE LITTLE ROCK AR
1100 PM CDT TUE JUL 26 2016

NOTE: "FAIR" INDICATES FEW OR NO CLOUDS BELOW 12,000 FEET WITH NO
SIGNIFICANT WEATHER AND/OR OBSTRUCTIONS TO VISIBILITY.

ARZ001-003-010-029-270500-
NORTHWEST ARKANSAS

CITY           SKY/WX    TMP DP  RH WIND       PRES   REMARKS
FAYETTEVILLE   CLOUDY    72  72 100 NE3       30.00S
FORT SMITH     CLOUDY    79  72  79 NE3       29.94R
HARRISON       MOCLDY    75  74  96 SE3       30.03R
BENTONVILLE    CLOUDY    73  70  88 SE6       30.01S
ROGERS         CLOUDY    74  71  91 E8        30.01F
SILOAM SPGS    CLOUDY    72  63  73 SE6       30.01S
HIGHFILL       CLOUDY    74  73  97 SE6       30.00S
$$

ARZ004-005-016-270500-
NORTH CENTRAL ARKANSAS

CITY           SKY/WX    TMP DP  RH WIND       PRES   REMARKS
BATESVILLE     CLOUDY    77  72  83 CALM      29.98R
FLIPPIN        CLOUDY    75  72  88 CALM      29.97S
MTN HOME       MOCLDY    74  73  97 E5        29.99F
$$

ARZ040-041-270500-
WEST CENTRAL ARKANSAS

CITY           SKY/WX    TMP DP  RH WIND       PRES   REMARKS
MENA           CLOUDY    77  77 100 CALM      29.98S
MOUNT IDA      PTCLDY    78  74  87 CALM      29.94S
$$

ARZ009-017-025-026-028-270500-
NORTHEAST ARKANSAS

CITY           SKY/WX    TMP DP  RH WIND       PRES   REMARKS
CORNING          N/A     77  77 100 N6        29.99S
JONESBORO      MOCLDY    78  73  84 NW5       29.97R
NEWPORT        PTCLDY    79  78  96 NE7       29.97S
WALNUT RIDGE   MOCLDY    79  72  78 NE7       29.97S
BLYTHEVILLE    PTCLDY    79  77  94 NE3       29.97F
$$

ARZ022-023-033-042-044-270500-
CENTRAL ARKANSAS

CITY           SKY/WX    TMP DP  RH WIND       PRES   REMARKS
LITTLE ROCK    PTCLDY    85  73  67 SE5       29.94S HX  91
JACKSONVILLE   PTCLDY    79  75  86 CALM      29.94S
SEARCY         CLEAR     80  74  81 NW3       29.96S HX  85
HOT SPRINGS    CLEAR     83  71  67 E5        29.95R HX  87
RUSSELLVILLE   MOCLDY    77  74  90 CALM      29.95R
$$

ARZ036-270500-
EAST ARKANSAS

CITY           SKY/WX    TMP DP  RH WIND       PRES   REMARKS
WEST MEMPHIS   CLEAR     76  73  91 CALM      29.94F
$$

ARZ050-053-066-070-073-270500-
SOUTHWEST ARKANSAS

CITY           SKY/WX    TMP DP  RH WIND       PRES   REMARKS
CAMDEN         PTCLDY    77  72  83 S5        29.94R
TEXARKANA      CLEAR     82  72  71 SE5       29.93R HX  87
EL DORADO      CLEAR     79  71  76 S7        29.95R
DE QUEEN       PTCLDY    82  74  76 CALM      29.91R HX  88
$$

ARZ056-057-069-270500-
SOUTHEAST ARKANSAS

CITY           SKY/WX    TMP DP  RH WIND       PRES   REMARKS
PINE BLUFF     CLEAR     80  74  81 CALM      29.94R HX  85
STUTTGART      CLEAR     84  72  65 E7        29.94F HX  89
MONTICELLO     CLOUDY    82  74  76 S5        29.95R HX  88

$$





USA.gov is the U.S. government's official web portal to all federal, state and local government web resources and services.